* Astronomy

Members Login
Username 
 
Password 
    Remember Me  
Post Info TOPIC: Asteroid 2008 AF32


L

Posts: 131433
Date:
Asteroid 2008 AF32
Permalink  
 


Orbital elements:
2008 AF32                                                Earth MOID = 0.1845 AU
Epoch 2012 Mar. 14.0 TT = JDT 2456000.5                 MPC
M 349.41201              (2000.0)            P               Q
n   0.73998371     Peri.   80.06054     -0.89066321     +0.11243262
a   1.2105645      Node   105.33607     -0.23887406     -0.94015408
e   0.1108676      Incl.   27.18141     +0.38685686     -0.32166631
P   1.33           H   21.0           G   0.15           U   1

MPEC 2011 - Y21



__________________
Page 1 of 1  sorted by
 
Quick Reply

Please log in to post quick replies.



Create your own FREE Forum
Report Abuse
Powered by ActiveBoard